![]() |
EMODnet Physics ERDDAP
Easier access to scientific data |
log in|
Brought to you by EMODnet Physics |
| Dataset Title: | NDBC - Collection of dew point temperature (DEWT) TimeSeries - IN SITU MultiPointTimeSeriesObservation
|
| Institution: | NDBC (Dataset ID: TS_DEWT_NDBC) |
| Information: | Summary
| License
| FGDC
| ISO 19115
| Metadata
| Background
| Subset
| Data Access Form
| Make a graph
|
| Name | Last modified | Size | Description | |
|---|---|---|---|---|
| Parent Directory | - | - | ||
| CARO3_TS_DEWT_011997.nc | 31-Dec-2024 20:44 | 447277 | ||
| CARO3_TS_DEWT_011999.nc | 31-Dec-2024 20:48 | 447744 | ||
| CARO3_TS_DEWT_012000.nc | 31-Dec-2024 20:51 | 448359 | ||
| CARO3_TS_DEWT_012001.nc | 31-Dec-2024 20:54 | 449318 | ||
| CARO3_TS_DEWT_012002.nc | 31-Dec-2024 20:57 | 422728 | ||
| CARO3_TS_DEWT_012003.nc | 31-Dec-2024 20:59 | 425773 | ||
| CARO3_TS_DEWT_012005.nc | 31-Dec-2024 21:05 | 421602 | ||
| CARO3_TS_DEWT_012006.nc | 31-Dec-2024 21:07 | 450248 | ||
| CARO3_TS_DEWT_012007.nc | 31-Dec-2024 21:10 | 442626 | ||
| CARO3_TS_DEWT_012008.nc | 31-Dec-2024 21:12 | 450310 | ||
| CARO3_TS_DEWT_012009.nc | 31-Dec-2024 21:15 | 451087 | ||
| CARO3_TS_DEWT_012011.nc | 31-Dec-2024 21:20 | 449935 | ||
| CARO3_TS_DEWT_012012.nc | 31-Dec-2024 21:22 | 422990 | ||
| CARO3_TS_DEWT_021997.nc | 31-Dec-2024 20:44 | 425299 | ||
| CARO3_TS_DEWT_021999.nc | 31-Dec-2024 20:49 | 421634 | ||
| CARO3_TS_DEWT_022000.nc | 31-Dec-2024 20:51 | 448616 | ||
| CARO3_TS_DEWT_022001.nc | 31-Dec-2024 20:54 | 449389 | ||
| CARO3_TS_DEWT_022002.nc | 31-Dec-2024 20:57 | 448900 | ||
| CARO3_TS_DEWT_022005.nc | 31-Dec-2024 21:05 | 449439 | ||
| CARO3_TS_DEWT_022006.nc | 31-Dec-2024 21:08 | 448593 | ||
| CARO3_TS_DEWT_022007.nc | 31-Dec-2024 21:10 | 422204 | ||
| CARO3_TS_DEWT_022008.nc | 31-Dec-2024 21:13 | 419753 | ||
| CARO3_TS_DEWT_022009.nc | 31-Dec-2024 21:15 | 449896 | ||
| CARO3_TS_DEWT_022011.nc | 31-Dec-2024 21:20 | 450231 | ||
| CARO3_TS_DEWT_022012.nc | 31-Dec-2024 21:23 | 450851 | ||
| CARO3_TS_DEWT_031999.nc | 31-Dec-2024 20:49 | 450797 | ||
| CARO3_TS_DEWT_032000.nc | 31-Dec-2024 20:51 | 450416 | ||
| CARO3_TS_DEWT_032001.nc | 31-Dec-2024 20:54 | 429299 | ||
| CARO3_TS_DEWT_032002.nc | 31-Dec-2024 20:57 | 424481 | ||
| CARO3_TS_DEWT_032005.nc | 31-Dec-2024 21:05 | 449657 | ||
| CARO3_TS_DEWT_032006.nc | 31-Dec-2024 21:08 | 448370 | ||
| CARO3_TS_DEWT_032007.nc | 31-Dec-2024 21:10 | 448555 | ||
| CARO3_TS_DEWT_032008.nc | 31-Dec-2024 21:13 | 449659 | ||
| CARO3_TS_DEWT_032009.nc | 31-Dec-2024 21:15 | 449004 | ||
| CARO3_TS_DEWT_032011.nc | 31-Dec-2024 21:20 | 431280 | ||
| CARO3_TS_DEWT_032012.nc | 31-Dec-2024 21:23 | 433371 | ||
| CARO3_TS_DEWT_041999.nc | 31-Dec-2024 20:49 | 441328 | ||
| CARO3_TS_DEWT_042000.nc | 31-Dec-2024 20:52 | 450009 | ||
| CARO3_TS_DEWT_042001.nc | 31-Dec-2024 20:55 | 450222 | ||
| CARO3_TS_DEWT_042002.nc | 31-Dec-2024 20:57 | 450040 | ||
| CARO3_TS_DEWT_042005.nc | 31-Dec-2024 21:05 | 451660 | ||
| CARO3_TS_DEWT_042006.nc | 31-Dec-2024 21:08 | 422038 | ||
| CARO3_TS_DEWT_042007.nc | 31-Dec-2024 21:10 | 450411 | ||
| CARO3_TS_DEWT_042008.nc | 31-Dec-2024 21:13 | 449948 | ||
| CARO3_TS_DEWT_042009.nc | 31-Dec-2024 21:15 | 447237 | ||
| CARO3_TS_DEWT_042011.nc | 31-Dec-2024 21:20 | 450187 | ||
| CARO3_TS_DEWT_042012.nc | 31-Dec-2024 21:23 | 449944 | ||
| CARO3_TS_DEWT_051999.nc | 31-Dec-2024 20:49 | 450202 | ||
| CARO3_TS_DEWT_052000.nc | 31-Dec-2024 20:52 | 420695 | ||
| CARO3_TS_DEWT_052001.nc | 31-Dec-2024 20:55 | 448915 | ||
| CARO3_TS_DEWT_052002.nc | 31-Dec-2024 20:58 | 450244 | ||
| CARO3_TS_DEWT_052005.nc | 31-Dec-2024 21:05 | 449611 | ||
| CARO3_TS_DEWT_052006.nc | 31-Dec-2024 21:08 | 448932 | ||
| CARO3_TS_DEWT_052007.nc | 31-Dec-2024 21:11 | 422759 | ||
| CARO3_TS_DEWT_052008.nc | 31-Dec-2024 21:13 | 419730 | ||
| CARO3_TS_DEWT_052009.nc | 31-Dec-2024 21:15 | 451048 | ||
| CARO3_TS_DEWT_052011.nc | 31-Dec-2024 21:20 | 450251 | ||
| CARO3_TS_DEWT_052012.nc | 31-Dec-2024 21:23 | 430258 | ||
| CARO3_TS_DEWT_061999.nc | 31-Dec-2024 20:49 | 450147 | ||
| CARO3_TS_DEWT_062000.nc | 31-Dec-2024 20:52 | 449812 | ||
| CARO3_TS_DEWT_062001.nc | 31-Dec-2024 20:55 | 419744 | ||
| CARO3_TS_DEWT_062002.nc | 31-Dec-2024 20:58 | 448637 | ||
| CARO3_TS_DEWT_062005.nc | 31-Dec-2024 21:06 | 425084 | ||
| CARO3_TS_DEWT_062006.nc | 31-Dec-2024 21:08 | 449594 | ||
| CARO3_TS_DEWT_062007.nc | 31-Dec-2024 21:11 | 449458 | ||
| CARO3_TS_DEWT_062008.nc | 31-Dec-2024 21:13 | 449070 | ||
| CARO3_TS_DEWT_062009.nc | 31-Dec-2024 21:16 | 418954 | ||
| CARO3_TS_DEWT_062010.nc | 31-Dec-2024 21:18 | 428965 | ||
| CARO3_TS_DEWT_062011.nc | 31-Dec-2024 21:21 | 450928 | ||
| CARO3_TS_DEWT_062012.nc | 31-Dec-2024 21:24 | 419032 | ||
| CARO3_TS_DEWT_071999.nc | 31-Dec-2024 20:50 | 451499 | ||
| CARO3_TS_DEWT_072000.nc | 31-Dec-2024 20:52 | 450685 | ||
| CARO3_TS_DEWT_072001.nc | 31-Dec-2024 20:55 | 449694 | ||
| CARO3_TS_DEWT_072002.nc | 31-Dec-2024 20:58 | 423191 | ||
| CARO3_TS_DEWT_072005.nc | 31-Dec-2024 21:06 | 433473 | ||
| CARO3_TS_DEWT_072006.nc | 31-Dec-2024 21:09 | 1627789 | ||
| CARO3_TS_DEWT_072007.nc | 31-Dec-2024 21:11 | 1627320 | ||
| CARO3_TS_DEWT_072008.nc | 31-Dec-2024 21:14 | 1627813 | ||
| CARO3_TS_DEWT_072009.nc | 31-Dec-2024 21:16 | 1627647 | ||
| CARO3_TS_DEWT_072010.nc | 31-Dec-2024 21:18 | 1627883 | ||
| CARO3_TS_DEWT_072011.nc | 31-Dec-2024 21:21 | 1627230 | ||
| CARO3_TS_DEWT_072012.nc | 31-Dec-2024 21:24 | 1627651 | ||
| CARO3_TS_DEWT_081999.nc | 31-Dec-2024 20:50 | 1627757 | ||
| CARO3_TS_DEWT_082000.nc | 31-Dec-2024 20:53 | 1627786 | ||
| CARO3_TS_DEWT_082001.nc | 31-Dec-2024 20:55 | 1627492 | ||
| CARO3_TS_DEWT_082002.nc | 31-Dec-2024 20:58 | 1626249 | ||
| CARO3_TS_DEWT_082005.nc | 31-Dec-2024 21:06 | 1476491 | ||
| CARO3_TS_DEWT_082006.nc | 31-Dec-2024 21:09 | 908830 | ||
| CARO3_TS_DEWT_082007.nc | 31-Dec-2024 21:11 | 1627897 | ||
| CARO3_TS_DEWT_082008.nc | 31-Dec-2024 21:14 | 1153493 | ||
| CARO3_TS_DEWT_082010.nc | 31-Dec-2024 21:19 | 1470774 | ||
| CARO3_TS_DEWT_082011.nc | 31-Dec-2024 21:21 | 1470347 | ||
| CARO3_TS_DEWT_082012.nc | 31-Dec-2024 21:24 | 1470755 | ||
| CARO3_TS_DEWT_091999.nc | 31-Dec-2024 20:50 | 1474400 | ||
| CARO3_TS_DEWT_092000.nc | 31-Dec-2024 20:53 | 1470957 | ||
| CARO3_TS_DEWT_092001.nc | 31-Dec-2024 20:56 | 1469740 | ||
| CARO3_TS_DEWT_092002.nc | 31-Dec-2024 20:58 | 1470885 | ||
| CARO3_TS_DEWT_092005.nc | 31-Dec-2024 21:06 | 1474361 | ||
| CARO3_TS_DEWT_092007.nc | 31-Dec-2024 21:12 | 1470789 | ||
| CARO3_TS_DEWT_092008.nc | 31-Dec-2024 21:14 | 994205 | ||
| CARO3_TS_DEWT_092010.nc | 31-Dec-2024 21:19 | 1470625 | ||
| CARO3_TS_DEWT_092011.nc | 31-Dec-2024 21:21 | 1472176 | ||
| CARO3_TS_DEWT_092012.nc | 31-Dec-2024 21:24 | 592895 | ||
| CARO3_TS_DEWT_101999.nc | 31-Dec-2024 20:50 | 1470362 | ||
| CARO3_TS_DEWT_102000.nc | 31-Dec-2024 20:53 | 420851 | ||
| CARO3_TS_DEWT_102001.nc | 31-Dec-2024 20:56 | 1627813 | ||
| CARO3_TS_DEWT_102005.nc | 31-Dec-2024 21:07 | 1625691 | ||
| CARO3_TS_DEWT_102006.nc | 31-Dec-2024 21:09 | 1478050 | ||
| CARO3_TS_DEWT_102007.nc | 31-Dec-2024 21:12 | 1627446 | ||
| CARO3_TS_DEWT_102008.nc | 31-Dec-2024 21:14 | 1627533 | ||
| CARO3_TS_DEWT_102010.nc | 31-Dec-2024 21:19 | 1626784 | ||
| CARO3_TS_DEWT_102011.nc | 31-Dec-2024 21:22 | 1625511 | ||
| CARO3_TS_DEWT_102012.nc | 31-Dec-2024 21:24 | 1626396 | ||
| CARO3_TS_DEWT_111998.nc | 31-Dec-2024 20:48 | 1627860 | ||
| CARO3_TS_DEWT_111999.nc | 31-Dec-2024 20:51 | 1626677 | ||
| CARO3_TS_DEWT_112000.nc | 31-Dec-2024 20:53 | 1627579 | ||
| CARO3_TS_DEWT_112001.nc | 31-Dec-2024 20:56 | 1627844 | ||
| CARO3_TS_DEWT_112004.nc | 31-Dec-2024 21:04 | 903344 | ||
| CARO3_TS_DEWT_112005.nc | 31-Dec-2024 21:07 | 1478554 | ||
| CARO3_TS_DEWT_112006.nc | 31-Dec-2024 21:09 | 1627905 | ||
| CARO3_TS_DEWT_112007.nc | 31-Dec-2024 21:12 | 1474030 | ||
| CARO3_TS_DEWT_112008.nc | 31-Dec-2024 21:14 | 1477284 | ||
| CARO3_TS_DEWT_112010.nc | 31-Dec-2024 21:19 | 1462081 | ||
| CARO3_TS_DEWT_112011.nc | 31-Dec-2024 21:22 | 1477996 | ||
| CARO3_TS_DEWT_121998.nc | 31-Dec-2024 20:48 | 1476335 | ||
| CARO3_TS_DEWT_121999.nc | 31-Dec-2024 20:51 | 1478034 | ||
| CARO3_TS_DEWT_122000.nc | 31-Dec-2024 20:54 | 1474227 | ||
| CARO3_TS_DEWT_122001.nc | 31-Dec-2024 20:56 | 1476809 | ||
| CARO3_TS_DEWT_122002.nc | 31-Dec-2024 20:59 | 1477900 | ||
| CARO3_TS_DEWT_122004.nc | 31-Dec-2024 21:04 | 1473662 | ||
| CARO3_TS_DEWT_122005.nc | 31-Dec-2024 21:07 | 1477995 | ||
| CARO3_TS_DEWT_122006.nc | 31-Dec-2024 21:10 | 1462087 | ||
| CARO3_TS_DEWT_122007.nc | 31-Dec-2024 21:12 | 1158752 | ||
| CARO3_TS_DEWT_122008.nc | 31-Dec-2024 21:14 | 1478004 | ||
| CARO3_TS_DEWT_122010.nc | 31-Dec-2024 21:19 | 1477256 | ||
| CARO3_TS_DEWT_122011.nc | 31-Dec-2024 21:22 | 1627619 | ||